Location: Asheville, NC
(35.6000°N, 82.5500°W)
Time: 01:33:06
(UTC-04:00)

Vanguard 2 Rocket - Pass Details

Date: 09 December 2017
Orbit: 554 x 3327 km, 32.9° (Epoch: 20 July)

Event Time Altitude Azimuth Distance (km) Brightness Sun altitude
Rises 00:50:12 0° 277° (W) 6,885 11.3 -75.9°
Enters shadow 00:50:43 - 277° (W) 6,785 11.3 -75.8°
Exits shadow 01:30:42 13° 115° (ESE) 5,005 10.7 -70.5°
Drops below altitude 10° 01:31:45 10° 114° (ESE) 5,216 10.8 -70.3°
Sets 01:35:08 0° 113° (ESE) 5,931 11.2 -69.7°
